| time (UTC) | temp F | wind direction | speed knots | gust knots | rain 1hr in | rain 24hr in | rain mn in | humidity % | barometer mb |
| 20260507162005 | 60 | 249 | 2.6 | 6.1 | 0.00 | 0.00 | 0.00 | 55 | 1014.4 |
| 20260507161458 | 61 | 215 | 2.6 | 4.3 | 0.00 | 0.00 | 0.00 | 55 | 1014.4 |
| 20260507160952 | 61 | 233 | 2.6 | 6.1 | 0.00 | 0.00 | 0.00 | 55 | 1014.4 |
| 20260507160446 | 61 | 272 | 2.6 | 6.1 | 0.00 | 0.00 | 0.00 | 55 | 1014.4 |
| 20260507155940 | 62 | 237 | 2.6 | 5.2 | 0.00 | 0.00 | 0.00 | 54 | 1014.3 |
| 20260507155433 | 62 | 221 | 3.5 | 6.1 | 0.00 | 0.00 | 0.00 | 53 | 1014.3 |
| 20260507154927 | 62 | 212 | 2.6 | 7.0 | 0.00 | 0.00 | 0.00 | 53 | 1014.3 |
| 20260507154421 | 63 | 221 | 2.6 | 6.1 | 0.00 | 0.00 | 0.00 | 53 | 1014.2 |
| 20260507153914 | 63 | 247 | 1.7 | 4.3 | 0.00 | 0.00 | 0.00 | 54 | 1014.2 |
| 20260507152902 | 63 | 256 | 2.6 | 4.3 | 0.00 | 0.00 | 0.00 | 53 | 1014.1 |
| 20260507152357 | 64 | 278 | 2.6 | 5.2 | 0.00 | 0.00 | 0.00 | 53 | 1014.0 |
| 20260507151849 | 64 | 268 | 1.7 | 4.3 | 0.00 | 0.00 | 0.00 | 53 | 1014.0 |
| 20260507151342 | 64 | 247 | 1.7 | 3.5 | 0.00 | 0.00 | 0.00 | 53 | 1014.0 |
| 20260507150836 | 64 | 260 | 1.7 | 4.3 | 0.00 | 0.00 | 0.00 | 53 | 1013.9 |
| 20260507145823 | 65 | 252 | 3.5 | 7.0 | 0.00 | 0.00 | 0.00 | 51 | 1013.9 |
| 20260507145316 | 65 | 264 | 3.5 | 7.0 | 0.00 | 0.00 | 0.00 | 51 | 1013.9 |
| 20260507144304 | 65 | 295 | 2.6 | 5.2 | 0.00 | 0.00 | 0.00 | 51 | 1013.8 |
| 20260507143757 | 65 | 263 | 2.6 | 4.3 | 0.00 | 0.00 | 0.00 | 50 | 1013.8 |
| 20260507142238 | 65 | 204 | 2.6 | 6.1 | 0.00 | 0.00 | 0.00 | 49 | 1013.6 |
| 20260507141225 | 65 | 231 | 2.6 | 5.2 | 0.00 | 0.00 | 0.00 | 49 | 1013.6 |
| 20260507140718 | 65 | 258 | 1.7 | 4.3 | 0.00 | 0.00 | 0.00 | 49 | 1013.5 |
| 20260507135705 | 65 | 238 | 2.6 | 5.2 | 0.00 | 0.00 | 0.00 | 48 | 1013.6 |
| 20260507135158 | 65 | 132 | 2.6 | 5.2 | 0.00 | 0.00 | 0.00 | 47 | 1013.6 |
| 20260507134652 | 65 | 141 | 1.7 | 2.6 | 0.00 | 0.00 | 0.00 | 48 | 1013.6 |
| 20260507133639 | 65 | 226 | 2.6 | 4.3 | 0.00 | 0.00 | 0.00 | 48 | 1013.7 |
| 20260507133132 | 65 | 202 | 2.6 | 6.1 | 0.00 | 0.00 | 0.00 | 48 | 1013.7 |
| 20260507132119 | 65 | 253 | 1.7 | 5.2 | 0.00 | 0.00 | 0.00 | 50 | 1013.7 |
| 20260507131106 | 65 | 237 | 2.6 | 6.1 | 0.00 | 0.00 | 0.00 | 50 | 1013.7 |
| 20260507130053 | 64 | 176 | 2.6 | 4.3 | 0.00 | 0.00 | 0.00 | 49 | 1013.7 |
| 20260507125040 | 66 | 256 | 1.7 | 3.5 | 0.00 | 0.00 | 0.00 | 49 | 1013.7 |
| 20260507123521 | 65 | 210 | 3.5 | 5.2 | 0.00 | 0.00 | 0.00 | 50 | 1013.6 |
| 20260507123014 | 64 | 146 | 1.7 | 2.6 | 0.00 | 0.00 | 0.00 | 51 | 1013.7 |
| 20260507122508 | 64 | 219 | 2.6 | 3.5 | 0.00 | 0.00 | 0.00 | 51 | 1013.7 |
| 20260507122001 | 64 | 234 | 1.7 | 3.5 | 0.00 | 0.00 | 0.00 | 50 | 1013.6 |
| 20260507121455 | 64 | 244 | 2.6 | 6.1 | 0.00 | 0.00 | 0.00 | 50 | 1013.6 |
| 20260507120949 | 64 | 190 | 2.6 | 6.1 | 0.00 | 0.00 | 0.00 | 50 | 1013.6 |
| 20260507115936 | 63 | 200 | 2.6 | 5.2 | 0.00 | 0.00 | 0.00 | 50 | 1013.6 |
| 20260507114923 | 63 | 229 | 2.6 | 5.2 | 0.00 | 0.00 | 0.00 | 52 | 1013.6 |
| 20260507114416 | 63 | 241 | 2.6 | 4.3 | 0.00 | 0.00 | 0.00 | 53 | 1013.6 |
| 20260507113910 | 63 | 217 | 1.7 | 4.3 | 0.00 | 0.00 | 0.00 | 53 | 1013.6 |
| 20260507113404 | 63 | 234 | 2.6 | 7.0 | 0.00 | 0.00 | 0.00 | 53 | 1013.6 |
| 20260507112857 | 63 | 279 | 2.6 | 3.5 | 0.00 | 0.00 | 0.00 | 52 | 1013.6 |
| 20260507112351 | 62 | 243 | 2.6 | 6.1 | 0.00 | 0.00 | 0.00 | 52 | 1013.7 |
| 20260507111845 | 63 | 236 | 1.7 | 4.3 | 0.00 | 0.00 | 0.00 | 52 | 1013.6 |
| 20260507111338 | 63 | 205 | 2.6 | 6.1 | 0.00 | 0.00 | 0.00 | 51 | 1013.5 |
| 20260507110832 | 63 | 244 | 1.7 | 3.5 | 0.00 | 0.00 | 0.00 | 52 | 1013.5 |
| 20260507110325 | 63 | 227 | 1.7 | 3.5 | 0.00 | 0.00 | 0.00 | 52 | 1013.5 |
| 20260507105819 | 63 | 233 | 1.7 | 4.3 | 0.00 | 0.00 | 0.00 | 51 | 1013.5 |
| 20260507105312 | 64 | 225 | 2.6 | 5.2 | 0.00 | 0.00 | 0.00 | 50 | 1013.5 |
| 20260507104806 | 64 | 243 | 2.6 | 6.1 | 0.00 | 0.00 | 0.00 | 50 | 1013.5 |
| 20260507104259 | 64 | 262 | 1.7 | 3.5 | 0.00 | 0.00 | 0.00 | 51 | 1013.4 |
| 20260507103753 | 64 | 235 | 2.6 | 4.3 | 0.00 | 0.00 | 0.00 | 51 | 1013.4 |
| 20260507102740 | 64 | 237 | 3.5 | 7.0 | 0.00 | 0.00 | 0.00 | 49 | 1013.5 |
| 20260507101727 | 65 | 227 | 3.5 | 6.1 | 0.00 | 0.00 | 0.00 | 49 | 1013.4 |
| 20260507101221 | 65 | 244 | 2.6 | 5.2 | 0.00 | 0.00 | 0.00 | 48 | 1013.4 |
| 20260507100714 | 66 | 249 | 3.5 | 6.1 | 0.00 | 0.00 | 0.00 | 47 | 1013.4 |
| 20260507095701 | 67 | 233 | 2.6 | 7.0 | 0.00 | 0.00 | 0.00 | 46 | 1013.2 |
| 20260507095154 | 68 | 176 | 1.7 | 4.3 | 0.00 | 0.00 | 0.00 | 45 | 1013.1 |
| 20260507094141 | 67 | 250 | 3.5 | 5.2 | 0.00 | 0.00 | 0.00 | 48 | 1012.9 |
| 20260507093634 | 66 | 227 | 3.5 | 7.0 | 0.00 | 0.00 | 0.00 | 50 | 1012.9 |
| 20260507093128 | 66 | 226 | 3.5 | 6.1 | 0.00 | 0.00 | 0.00 | 49 | 1013.0 |
| 20260507092621 | 66 | 208 | 3.5 | 7.8 | 0.00 | 0.00 | 0.00 | 47 | 1012.8 |
| 20260507092115 | 67 | 242 | 3.5 | 6.1 | 0.00 | 0.00 | 0.00 | 49 | 1012.7 |
| 20260507091101 | 67 | 219 | 2.6 | 6.1 | 0.00 | 0.00 | 0.00 | 48 | 1012.7 |
| 20260507090048 | 67 | 224 | 3.5 | 5.2 | 0.00 | 0.00 | 0.00 | 50 | 1012.6 |
| 20260507085542 | 67 | 179 | 2.6 | 4.3 | 0.00 | 0.00 | 0.00 | 51 | 1012.6 |
| 20260507085035 | 67 | 163 | 3.5 | 4.3 | 0.00 | 0.00 | 0.00 | 49 | 1012.5 |
| 20260507084022 | 67 | 238 | 2.6 | 7.8 | 0.00 | 0.00 | 0.00 | 51 | 1012.4 |
| 20260507083515 | 67 | 237 | 3.5 | 6.1 | 0.00 | 0.00 | 0.00 | 51 | 1012.4 |
| 20260507083009 | 67 | 241 | 2.6 | 7.0 | 0.00 | 0.00 | 0.00 | 52 | 1012.3 |
| 20260507081956 | 67 | 217 | 3.5 | 5.2 | 0.00 | 0.00 | 0.00 | 51 | 1012.3 |
| 20260507081449 | 67 | 211 | 3.5 | 8.7 | 0.00 | 0.00 | 0.00 | 52 | 1012.3 |
| 20260507080942 | 66 | 197 | 3.5 | 6.1 | 0.00 | 0.00 | 0.00 | 53 | 1012.2 |
| 20260507080436 | 66 | 207 | 3.5 | 7.8 | 0.00 | 0.00 | 0.00 | 53 | 1012.2 |
| 20260507075929 | 66 | 193 | 3.5 | 7.0 | 0.00 | 0.00 | 0.00 | 56 | 1012.1 |
| 20260507075423 | 65 | 263 | 3.5 | 7.0 | 0.00 | 0.00 | 0.00 | 55 | 1012.1 |
| 20260507074410 | 65 | 226 | 2.6 | 4.3 | 0.00 | 0.00 | 0.00 | 59 | 1012.1 |
| 20260507073357 | 64 | 191 | 2.6 | 6.1 | 0.00 | 0.00 | 0.00 | 58 | 1012.1 |
| 20260507072344 | 64 | 203 | 3.5 | 5.2 | 0.00 | 0.00 | 0.00 | 60 | 1011.9 |
| 20260507071331 | 62 | 257 | 2.6 | 4.3 | 0.00 | 0.00 | 0.00 | 63 | 1011.9 |
| 20260507070825 | 62 | 222 | 2.6 | 5.2 | 0.00 | 0.00 | 0.00 | 61 | 1011.8 |
| 20260507070319 | 64 | 195 | 2.6 | 7.0 | 0.00 | 0.00 | 0.00 | 60 | 1011.8 |
| 20260507065812 | 64 | 206 | 3.5 | 6.1 | 0.00 | 0.00 | 0.00 | 61 | 1011.7 |
| 20260507065306 | 64 | 188 | 2.6 | 5.2 | 0.00 | 0.00 | 0.00 | 62 | 1011.7 |
| 20260507064759 | 64 | 208 | 1.7 | 3.5 | 0.00 | 0.00 | 0.00 | 66 | 1011.6 |
| 20260507063746 | 62 | 234 | 1.7 | 2.6 | 0.00 | 0.00 | 0.00 | 70 | 1011.6 |
| 20260507063240 | 61 | 227 | 1.7 | 3.5 | 0.00 | 0.00 | 0.00 | 74 | 1011.6 |
| 20260507062734 | 60 | 240 | 1.7 | 2.6 | 0.00 | 0.00 | 0.00 | 75 | 1011.6 |
| 20260507062227 | 60 | 169 | 2.6 | 4.3 | 0.00 | 0.00 | 0.00 | 75 | 1011.5 |
| 20260507061215 | 58 | 255 | 1.7 | 4.3 | 0.00 | 0.00 | 0.00 | 80 | 1011.5 |
| 20260507060709 | 57 | 219 | 1.7 | 2.6 | 0.00 | 0.00 | 0.00 | 82 | 1011.3 |
| 20260507060203 | 57 | 168 | 1.7 | 2.6 | 0.00 | 0.00 | 0.00 | 84 | 1011.3 |
| 20260507055657 | 57 | 233 | 1.7 | 2.6 | 0.00 | 0.00 | 0.00 | 85 | 1011.2 |
| 20260507055151 | 57 | 217 | 1.7 | 3.5 | 0.00 | 0.00 | 0.00 | 86 | 1011.1 |
| 20260507054138 | 56 | 133 | 0.9 | 1.7 | 0.00 | 0.00 | 0.00 | 89 | 1011.0 |
| 20260507052620 | 55 | 106 | 0.0 | 0.0 | 0.00 | 0.00 | 0.00 | 93 | 1010.9 |
| 20260507051609 | 52 | 315 | 0.0 | 0.0 | 0.00 | 0.00 | 0.00 | 94 | 1010.8 |
| 20260507050558 | 50 | 334 | 0.0 | 0.0 | 0.00 | 0.00 | 0.00 | 93 | 1010.7 |
| 20260507050051 | 49 | 60 | 0.0 | 0.0 | 0.00 | 0.00 | 0.00 | 93 | 1010.7 |
| 20260507045546 | 48 | 54 | 0.0 | 0.0 | 0.00 | 0.00 | 0.00 | 91 | 1010.6 |
| 20260507045040 | 48 | 355 | 0.0 | 0.0 | 0.00 | 0.00 | 0.00 | 90 | 1010.6 |
| 20260507044534 | 47 | 315 | 0.0 | 0.0 | 0.00 | 0.00 | 0.00 | 89 | 1010.5 |
| 20260507044028 | 47 | 18 | 0.0 | 0.0 | 0.00 | 0.00 | 0.00 | 89 | 1010.4 |
| 20260507043523 | 47 | 29 | 0.0 | 0.0 | 0.00 | 0.00 | 0.00 | 88 | 1010.3 |
| 20260507043017 | 47 | 350 | 0.0 | 0.0 | 0.00 | 0.00 | 0.00 | 88 | 1010.2 |
| 20260507042006 | 47 | 0 | 0.0 | 0.0 | 0.00 | 0.00 | 0.00 | 88 | 1010.1 |
| 20260507041500 | 47 | 359 | 0.0 | 0.0 | 0.00 | 0.00 | 0.00 | 88 | 1010.1 |
| 20260507040954 | 47 | 63 | 0.0 | 0.0 | 0.00 | 0.00 | 0.00 | 88 | 1010.1 |
| 20260507040449 | 47 | 333 | 0.0 | 0.0 | 0.00 | 0.00 | 0.00 | 88 | 1010.2 |
| 20260507035943 | 47 | 315 | 0.0 | 0.0 | 0.00 | 0.00 | 0.00 | 87 | 1010.1 |
| 20260507035437 | 47 | 315 | 0.0 | 0.0 | 0.00 | 0.00 | 0.00 | 87 | 1010.1 |
| 20260507034932 | 47 | 315 | 0.0 | 0.0 | 0.00 | 0.00 | 0.00 | 86 | 1010.1 |
| 20260507034426 | 47 | 315 | 0.0 | 0.0 | 0.00 | 0.00 | 0.00 | 86 | 1010.1 |
| 20260507033415 | 47 | 350 | 0.0 | 0.0 | 0.00 | 0.00 | 0.00 | 86 | 1009.9 |
| 20260507032909 | 47 | 0 | 0.0 | 0.0 | 0.00 | 0.00 | 0.00 | 86 | 1009.8 |
| 20260507025835 | 48 | 315 | 0.0 | 0.0 | 0.00 | 0.00 | 0.00 | 86 | 1009.7 |
| 20260507025329 | 48 | 315 | 0.0 | 0.0 | 0.00 | 0.00 | 0.00 | 86 | 1009.6 |
| 20260507024823 | 48 | 315 | 0.0 | 0.0 | 0.00 | 0.00 | 0.00 | 86 | 1009.7 |
| 20260507024318 | 48 | 315 | 0.0 | 0.0 | 0.00 | 0.00 | 0.00 | 85 | 1009.7 |
| 20260507023812 | 48 | 315 | 0.0 | 0.0 | 0.00 | 0.00 | 0.00 | 85 | 1009.6 |
| 20260507022801 | 49 | 312 | 0.0 | 0.0 | 0.00 | 0.00 | 0.00 | 85 | 1009.7 |
| 20260507022255 | 49 | 306 | 0.0 | 0.0 | 0.00 | 0.00 | 0.00 | 85 | 1009.7 |
| 20260507014714 | 50 | 280 | 0.0 | 0.0 | 0.00 | 0.00 | 0.00 | 85 | 1009.3 |
| 20260507014209 | 50 | 274 | 0.0 | 0.0 | 0.00 | 0.00 | 0.00 | 85 | 1009.3 |
| 20260507012651 | 51 | 315 | 0.0 | 0.0 | 0.00 | 0.00 | 0.00 | 85 | 1009.3 |
| 20260507011640 | 51 | 262 | 0.0 | 0.0 | 0.00 | 0.00 | 0.00 | 85 | 1009.2 |
| 20260507011134 | 51 | 286 | 0.0 | 0.0 | 0.00 | 0.00 | 0.00 | 85 | 1009.2 |
| 20260507010628 | 51 | 315 | 0.0 | 0.0 | 0.00 | 0.00 | 0.00 | 85 | 1009.1 |
| 20260507010122 | 52 | 315 | 0.0 | 0.0 | 0.00 | 0.00 | 0.00 | 85 | 1009.0 |
| 20260507005616 | 52 | 315 | 0.0 | 0.0 | 0.00 | 0.00 | 0.00 | 85 | 1009.0 |
| 20260507005111 | 52 | 315 | 0.0 | 0.0 | 0.00 | 0.00 | 0.00 | 85 | 1009.0 |
| 20260507004059 | 52 | 315 | 0.0 | 0.0 | 0.00 | 0.00 | 0.00 | 85 | 1008.7 |
| 20260507003553 | 52 | 274 | 0.0 | 0.0 | 0.00 | 0.00 | 0.00 | 85 | 1008.6 |
| 20260507003047 | 53 | 308 | 0.0 | 0.0 | 0.00 | 0.00 | 0.00 | 85 | 1008.7 |
| 20260507001529 | 53 | 306 | 0.0 | 0.0 | 0.00 | 0.00 | 0.00 | 86 | 1008.6 |
| 20260507000517 | 53 | 267 | 0.0 | 0.0 | 0.00 | 0.00 | 0.00 | 86 | 1008.7 |
| 20260507000011 | 53 | 260 | 0.0 | 0.0 | 0.00 | 0.00 | 0.00 | 85 | 1008.6 |
| 20260506235000 | 54 | 319 | 0.0 | 0.0 | 0.00 | 0.00 | 0.00 | 85 | 1008.4 |
| 20260506234454 | 54 | 0 | 0.0 | 0.0 | 0.00 | 0.00 | 0.00 | 85 | 1008.4 |
| 20260506233948 | 54 | 293 | 0.0 | 0.0 | 0.00 | 0.00 | 0.00 | 85 | 1008.4 |
| 20260506233442 | 54 | 226 | 0.0 | 0.0 | 0.00 | 0.00 | 0.00 | 85 | 1008.3 |
| 20260506232936 | 54 | 278 | 0.0 | 0.0 | 0.00 | 0.00 | 0.00 | 85 | 1008.3 |
| 20260506232430 | 54 | 315 | 0.0 | 0.0 | 0.00 | 0.00 | 0.00 | 85 | 1008.1 |
| 20260506231924 | 54 | 233 | 0.0 | 0.0 | 0.00 | 0.00 | 0.00 | 86 | 1008.1 |
| 20260506231418 | 55 | 225 | 0.0 | 0.0 | 0.00 | 0.00 | 0.00 | 86 | 1008.1 |
| 20260506230406 | 55 | 327 | 0.0 | 0.0 | 0.00 | 0.00 | 0.00 | 86 | 1008.3 |
| 20260506224848 | 55 | 241 | 0.0 | 0.0 | 0.00 | 0.00 | 0.00 | 86 | 1008.1 |
| 20260506224342 | 55 | 222 | 0.0 | 0.0 | 0.00 | 0.00 | 0.00 | 87 | 1008.0 |
| 20260506223836 | 55 | 0 | 0.0 | 0.0 | 0.00 | 0.00 | 0.00 | 88 | 1007.9 |
| 20260506223330 | 55 | 9 | 0.0 | 0.0 | 0.00 | 0.00 | 0.00 | 88 | 1007.8 |
| 20260506222824 | 55 | 87 | 0.0 | 0.0 | 0.00 | 0.00 | 0.00 | 89 | 1007.9 |
| 20260506222318 | 56 | 59 | 0.0 | 0.0 | 0.00 | 0.00 | 0.00 | 86 | 1008.2 |
| 20260506221306 | 56 | 226 | 0.0 | 0.0 | 0.00 | 0.00 | 0.00 | 86 | 1008.3 |
| 20260506220800 | 56 | 220 | 0.0 | 0.0 | 0.00 | 0.00 | 0.00 | 86 | 1008.3 |
| 20260506215242 | 56 | 297 | 0.0 | 0.0 | 0.00 | 0.00 | 0.00 | 84 | 1008.0 |
| 20260506214230 | 57 | 251 | 0.9 | 0.9 | 0.00 | 0.00 | 0.00 | 83 | 1007.9 |
| 20260506212712 | 57 | 270 | 0.9 | 1.7 | 0.00 | 0.00 | 0.00 | 83 | 1007.7 |
| 20260506212205 | 57 | 270 | 0.0 | 0.0 | 0.00 | 0.00 | 0.00 | 83 | 1007.6 |
| 20260506211659 | 57 | 270 | 0.0 | 0.0 | 0.00 | 0.00 | 0.00 | 83 | 1007.5 |
| 20260506211153 | 57 | 297 | 0.0 | 0.0 | 0.00 | 0.00 | 0.00 | 83 | 1007.5 |
| 20260506210647 | 57 | 0 | 0.0 | 0.0 | 0.00 | 0.00 | 0.00 | 83 | 1007.5 |
| 20260506210141 | 57 | 0 | 0.0 | 0.0 | 0.00 | 0.00 | 0.00 | 83 | 1007.5 |
| 20260506204623 | 57 | 294 | 0.0 | 0.9 | 0.00 | 0.00 | 0.00 | 83 | 1007.6 |
| 20260506203611 | 57 | 359 | 0.0 | 0.9 | 0.00 | 0.00 | 0.00 | 84 | 1007.4 |
| 20260506203105 | 57 | 23 | 0.0 | 1.7 | 0.00 | 0.00 | 0.00 | 84 | 1007.5 |
| 20260506201546 | 58 | 155 | 0.9 | 1.7 | 0.00 | 0.00 | 0.00 | 83 | 1008.0 |
| 20260506201040 | 58 | 336 | 0.9 | 1.7 | 0.00 | 0.00 | 0.00 | 81 | 1008.0 |
| 20260506200534 | 58 | 293 | 0.9 | 1.7 | 0.00 | 0.00 | 0.00 | 81 | 1008.1 |
| 20260506200028 | 59 | 281 | 1.7 | 4.3 | 0.00 | 0.00 | 0.00 | 80 | 1008.0 |
| 20260506195015 | 59 | 263 | 2.6 | 6.1 | 0.00 | 0.00 | 0.00 | 79 | 1008.0 |
| 20260506194509 | 59 | 236 | 1.7 | 3.5 | 0.00 | 0.00 | 0.00 | 78 | 1007.9 |
| 20260506194003 | 59 | 248 | 0.9 | 1.7 | 0.00 | 0.00 | 0.00 | 76 | 1007.4 |
| 20260506193457 | 59 | 259 | 0.9 | 1.7 | 0.00 | 0.00 | 0.00 | 76 | 1006.9 |
| 20260506191938 | 60 | 317 | 0.0 | 0.0 | 0.00 | 0.00 | 0.00 | 74 | 1006.2 |
| 20260506190926 | 60 | 10 | 0.0 | 0.0 | 0.00 | 0.00 | 0.00 | 73 | 1006.0 |
| 20260506190420 | 60 | 319 | 0.0 | 0.0 | 0.00 | 0.00 | 0.00 | 71 | 1006.0 |
| 20260506185913 | 61 | 314 | 0.0 | 0.0 | 0.00 | 0.00 | 0.00 | 71 | 1006.1 |
| 20260506185407 | 61 | 0 | 0.0 | 0.0 | 0.00 | 0.00 | 0.00 | 71 | 1006.1 |
| 20260506184901 | 61 | 0 | 0.0 | 0.0 | 0.00 | 0.00 | 0.00 | 70 | 1005.9 |
| 20260506184354 | 61 | 0 | 0.0 | 0.0 | 0.00 | 0.00 | 0.00 | 70 | 1005.8 |
| 20260506183848 | 62 | 359 | 0.0 | 0.0 | 0.00 | 0.00 | 0.00 | 69 | 1005.7 |
| 20260506182835 | 62 | 315 | 0.0 | 0.0 | 0.00 | 0.00 | 0.00 | 69 | 1005.5 |
| 20260506181823 | 62 | 315 | 0.0 | 0.0 | 0.00 | 0.00 | 0.00 | 69 | 1005.5 |
| 20260506181316 | 63 | 315 | 0.0 | 0.0 | 0.00 | 0.00 | 0.00 | 69 | 1005.4 |
| 20260506175251 | 63 | 347 | 0.0 | 0.9 | 0.00 | 0.00 | 0.00 | 69 | 1005.3 |
| 20260506174238 | 64 | 357 | 0.0 | 0.0 | 0.00 | 0.00 | 0.00 | 69 | 1005.2 |
| 20260506173732 | 64 | 35 | 0.0 | 0.9 | 0.00 | 0.00 | 0.00 | 69 | 1005.2 |
| 20260506173225 | 64 | 32 | 0.0 | 0.9 | 0.00 | 0.00 | 0.00 | 69 | 1005.2 |
| 20260506172719 | 64 | 0 | 0.0 | 0.0 | 0.00 | 0.00 | 0.00 | 68 | 1005.0 |
| 20260506172212 | 64 | 331 | 0.0 | 0.0 | 0.00 | 0.00 | 0.00 | 68 | 1005.1 |
| 20260506171706 | 65 | 322 | 0.0 | 0.0 | 0.00 | 0.00 | 0.00 | 68 | 1005.1 |
| 20260506171159 | 65 | 0 | 0.0 | 0.0 | 0.00 | 0.00 | 0.00 | 69 | 1005.0 |
| 20260506170653 | 65 | 357 | 0.0 | 0.9 | 0.00 | 0.00 | 0.00 | 69 | 1005.0 |
| 20260506165640 | 65 | 42 | 0.0 | 0.0 | 0.00 | 0.00 | 0.00 | 69 | 1004.9 |
| 20260506165134 | 65 | 1 | 0.0 | 0.0 | 0.00 | 0.00 | 0.00 | 69 | 1004.9 |
| 20260506164627 | 65 | 0 | 0.0 | 0.0 | 0.00 | 0.00 | 0.00 | 69 | 1004.9 |
| 20260506164120 | 65 | 33 | 0.0 | 0.0 | 0.00 | 0.00 | 0.00 | 69 | 1005.0 |